Location: Washington
(38.8950°N, 77.0370°W)
Time: 14:28:52
(UTC-05:00)

Amateur Radio Satellites - All Passes

Search period start: 22 December 2014 13:58
Search period end: 23 December 2014 13:58
Location: Washington, 38.8950°N, 77.0370°W

Satellite Date Start Highest point End Downlink Frequencies (MHz)
Time Altitude Azimuth
SRMSAT 22 Dec 13:59:47 14:01:35 11° 178° (S) 14:03:22 437.500
STARS 22 Dec 14:01:20 14:04:07 16° 93° (E) 14:06:53 437.465
Oscar 19 22 Dec 14:07:34 14:11:04 18° 267° (W) 14:14:35 437.125/150
KKS-1 22 Dec 14:08:25 14:12:21 29° 97° (E) 14:16:15 437.445
AIST 2 22 Dec 14:08:45 14:12:38 34° 308° (NW) 14:16:35 435.215
PCSat 22 Dec 14:12:22 14:17:22 38° 305° (NW) 14:22:26 145.827
ITAMSAT 1 22 Dec 14:26:26 14:31:01 32° 263° (W) 14:35:38 435.822/435.867
Gurwin Techsat 1B 22 Dec 14:32:39 14:37:44 47° 261° (W) 14:42:51 435.225
BEESAT 2 22 Dec 14:35:19 14:36:42 11° 319° (NW) 14:38:06 435.950
HORYU 2 22 Dec 14:36:45 14:41:12 79° 76° (ENE) 14:45:43 437.375
SWISSCUBE 22 Dec 14:50:32 14:53:58 20° 294° (WNW) 14:57:23 437.505
ITUPSAT 1 22 Dec 14:51:44 14:55:19 22° 294° (WNW) 14:58:53 437.325
AUBIESAT-1 22 Dec 14:59:34 15:03:38 45° 293° (WNW) 15:07:20 437.475
GONETS M04 22 Dec 15:11:34 15:18:15 24° 67° (ENE) 15:24:50
BEESAT 22 Dec 15:16:19 15:18:20 13° 298° (WNW) 15:20:20 436.000
AIST 1 22 Dec 15:20:21 15:23:24 19° 87° (E) 15:26:27
M-CUBED/EXP-1 PRIME 22 Dec 15:27:23 15:30:38 21° 299° (WNW) 15:33:41 437.505
ISS 22 Dec 15:28:07 15:28:50 11° 349° (N) 15:29:34 145.825
JAS-2 22 Dec 15:30:59 15:37:47 38° 68° (ENE) 15:44:02 435.910
STARS 22 Dec 15:36:34 15:40:46 43° 288° (WNW) 15:44:58 437.465
AO-7 22 Dec 15:41:01 15:49:20 76° 254° (WSW) 15:57:44 29.400- 29.500
KKS-1 22 Dec 15:45:14 15:48:50 24° 292° (WNW) 15:52:26 437.445
Cubesat XI-IV 22 Dec 16:01:59 16:03:13 11° 59° (ENE) 16:04:28 437.490
RS-15 22 Dec 16:14:20 16:20:50 17° 359° (N) 16:27:27 29.354- 29.394
CUTE-I 22 Dec 16:31:37 16:35:29 21° 64° (ENE) 16:39:21 437.470
AIST 1 22 Dec 16:56:52 17:00:48 32° 283° (WNW) 17:04:44
ISS 22 Dec 17:05:59 17:06:40 10° 10° (N) 17:07:20 145.825
GONETS M04 22 Dec 17:07:10 17:15:53 72° 267° (W) 17:24:29
MOZHAYETS 4 22 Dec 17:08:44 17:13:23 86° 102° (ESE) 17:17:58
MaSat-1 22 Dec 17:09:29 17:11:02 15° 60° (ENE) 17:12:37 437.345
JAS-2 22 Dec 17:15:31 17:22:40 42° 262° (W) 17:29:16 435.910
Cubesat XI-IV 22 Dec 17:37:08 17:42:28 85° 75° (ENE) 17:47:48 437.490
AO-7 22 Dec 17:39:58 17:43:19 13° 271° (W) 17:46:42 29.400- 29.500
STRAND 1 22 Dec 18:03:15 18:06:52 19° 93° (E) 18:10:28 437.568
CUTE-I 22 Dec 18:10:03 18:15:10 48° 260° (W) 18:20:19 437.470
CUSAT 1 22 Dec 18:19:43 18:23:31 14° 62° (ENE) 18:27:25 437.405
RS-15 22 Dec 18:29:18 18:38:39 29° 34° (NE) 18:48:16 29.354- 29.394
CUBESAT XI-V 22 Dec 18:37:57 18:42:27 53° 100° (E) 18:46:56 437.345
ISS 22 Dec 18:41:09 18:44:05 29° 30° (NNE) 18:47:00 145.825
PRISM 22 Dec 18:41:49 18:45:56 63° 286° (WNW) 18:49:59 437.425
MaSat-1 22 Dec 18:43:00 18:44:00 12° 252° (WSW) 18:45:02 437.345
HO-68 22 Dec 18:48:00 18:53:24 24° 59° (ENE) 18:58:49 435.675
CANX-2 22 Dec 18:57:43 18:59:01 11° 63° (ENE) 19:00:18 2200.000
BRITE-PL 22 Dec 19:04:11 19:06:03 13° 65° (ENE) 19:07:55 437.365/2234.400
GONETS M04 22 Dec 19:08:31 19:10:58 11° 286° (WNW) 19:13:24
COMPASS 1 22 Dec 19:13:20 19:14:23 11° 63° (ENE) 19:15:26 437.405
GOMX 1 22 Dec 19:19:15 19:21:15 13° 65° (ENE) 19:23:15 467.674
DANDE 22 Dec 19:19:56 19:26:57 33° 72° (ENE) 19:34:31 436.750
SEEDS 22 Dec 19:20:18 19:22:54 16° 66° (ENE) 19:25:30 437.485
Cubesat XI-IV 22 Dec 19:22:13 19:23:09 10° 271° (W) 19:24:06 437.490
CUTE 1.7 + AOD 2 22 Dec 19:26:01 19:29:16 21° 68° (ENE) 19:32:31 437.475
DOVE 4 22 Dec 19:33:56 19:36:08 14° 65° (ENE) 19:38:22 437.250
STRAND 1 22 Dec 19:41:24 19:46:15 46° 289° (WNW) 19:51:05 437.568
CINEMA 3 22 Dec 19:44:03 19:44:54 11° 62° (ENE) 19:45:45 145.822/145.860
DX 1 22 Dec 19:53:57 19:55:15 11° 62° (ENE) 19:56:33 434.975-435.025
CUSAT 1 22 Dec 19:59:50 20:07:48 67° 79° (E) 20:16:15 437.405
SO-50 22 Dec 20:05:37 20:09:56 48° 116° (ESE) 20:14:24 436.795
AAUSAT CUBESAT 2 22 Dec 20:08:35 20:12:30 40° 72° (ENE) 20:16:28 437.432
Oscar 11 22 Dec 20:10:10 20:13:27 22° 68° (ENE) 20:16:46 145.826/435.025
CUBESAT XI-V 22 Dec 20:16:51 20:19:26 15° 296° (WNW) 20:22:00 437.345
ISS 22 Dec 20:17:44 20:20:38 29° 226° (SW) 20:23:30 145.825
UKube-1 22 Dec 20:20:16 20:23:32 21° 67° (ENE) 20:26:48 .
CANX-2 22 Dec 20:30:09 20:34:22 64° 259° (W) 20:38:39 2200.000
HO-68 22 Dec 20:33:21 20:40:29 67° 257° (WSW) 20:47:39 435.675
BEESAT 3 22 Dec 20:33:51 20:36:42 18° 46° (NE) 20:39:31 437.485
BRITE-PL 22 Dec 20:40:09 20:44:10 47° 261° (W) 20:48:11 437.365/2234.400
RS-15 22 Dec 20:41:25 20:52:48 86° 60° (ENE) 21:04:41 29.354- 29.394
COMPASS 1 22 Dec 20:45:20 20:49:31 65° 259° (W) 20:53:45 437.405
CUBEBUG 2 22 Dec 20:45:34 20:49:17 31° 70° (ENE) 20:53:05 437.445
ZACube-1 22 Dec 20:46:30 20:49:50 23° 68° (ENE) 20:53:15 437.345
DELFI C3 22 Dec 20:47:58 20:51:53 45° 73° (ENE) 20:55:50 145.870
50 SAT 22 Dec 20:51:02 20:52:20 11° 64° (ENE) 20:53:38 437.505
SEEDS 22 Dec 20:54:20 20:58:21 42° 262° (W) 21:02:26 437.485
AIST 2 22 Dec 20:54:29 20:56:38 13° 43° (NE) 20:58:46 435.215
GOMX 1 22 Dec 20:54:59 20:58:58 46° 261° (W) 21:03:00 467.674
VELOX 1 22 Dec 20:56:46 20:59:47 18° 66° (ENE) 21:02:48 145.980
CUTE 1.7 + AOD 2 22 Dec 21:01:13 21:04:59 31° 264° (W) 21:08:48 437.475
DANDE 22 Dec 21:02:51 21:10:39 58° 266° (W) 21:19:07 436.750
DOVE 4 22 Dec 21:09:34 21:13:31 44° 261° (W) 21:17:33 437.250
ESTCUBE 1 22 Dec 21:10:34 21:11:01 10° 62° (ENE) 21:11:29 437.505/2401.250
FUNcube-1 22 Dec 21:11:45 21:15:43 44° 73° (ENE) 21:19:48 145.935
BEESAT 2 22 Dec 21:15:10 21:19:05 37° 53° (NE) 21:22:56 435.950
CINEMA 3 22 Dec 21:17:23 21:21:30 64° 259° (W) 21:25:45 145.822/145.860
UWE-3 22 Dec 21:18:19 21:22:28 65° 75° (ENE) 21:26:43 435.000/436.395/437.385
PCSat 22 Dec 21:18:34 21:22:34 20° 48° (NE) 21:26:33 145.827
DX 1 22 Dec 21:26:36 21:30:55 66° 258° (WSW) 21:35:15 434.975-435.025
HUMSAT D 22 Dec 21:28:38 21:32:30 40° 72° (ENE) 21:36:25 437.325/437.525
CUBEBUG 1 22 Dec 21:38:34 21:41:38 19° 67° (ENE) 21:44:41 437.445
AISAT 22 Dec 21:39:49 21:44:07 54° 73° (ENE) 21:48:25 437.250
CUSAT 1 22 Dec 21:43:54 21:50:23 28° 274° (W) 21:57:09 437.405
Oscar 11 22 Dec 21:45:34 21:49:25 31° 263° (W) 21:53:19 145.826/435.025
AAUSAT CUBESAT 2 22 Dec 21:45:47 21:48:20 16° 268° (W) 21:50:54 437.432
SO-50 22 Dec 21:47:16 21:50:44 21° 315° (NW) 21:54:18 436.795
UKube-1 22 Dec 21:55:37 21:59:29 32° 262° (W) 22:03:22 .
ANTELSAT 22 Dec 21:57:19 22:01:00 22° 94° (E) 22:04:39 437.575/2403.000
POPSAT HIP 1 22 Dec 22:06:03 22:08:35 15° 93° (E) 22:11:07 437.405
BEESAT 3 22 Dec 22:11:07 22:15:08 48° 244° (WSW) 22:19:05 437.485
YUBILEINY 22 Dec 22:17:11 22:23:27 23° 81° (E) 22:29:41 435.215
BUGSAT 1 22 Dec 22:20:05 22:22:43 17° 94° (E) 22:25:22 437.445
ZACube-1 22 Dec 22:22:33 22:26:05 27° 265° (W) 22:29:43 437.345
CUBEBUG 2 22 Dec 22:23:01 22:26:03 19° 267° (W) 22:29:10 437.445
50 SAT 22 Dec 22:23:06 22:27:01 55° 260° (W) 22:31:01 437.505
DELFI C3 22 Dec 22:25:24 22:27:22 13° 268° (W) 22:29:20 145.870
TISAT 1 22 Dec 22:26:31 22:28:55 15° 65° (ENE) 22:31:19 437.305
TIGRISAT 22 Dec 22:30:36 22:35:11 49° 99° (E) 22:39:45 435.000
AIST 2 22 Dec 22:31:29 22:35:47 75° 241° (WSW) 22:39:59 435.215
DUCHIFAT 1 22 Dec 22:31:47 22:35:33 30° 97° (E) 22:39:18 145.980
VELOX 1 22 Dec 22:31:55 22:36:03 39° 261° (W) 22:40:12 145.980
SPROUT 22 Dec 22:37:06 22:40:02 18° 67° (ENE) 22:42:59 437.525
ESTCUBE 1 22 Dec 22:42:41 22:47:13 79° 258° (WSW) 22:51:46 437.505/2401.250
QB50P2 22 Dec 22:46:52 22:51:00 46° 99° (E) 22:55:07 145.880/145.840
FUNcube-1 22 Dec 22:50:09 22:52:20 14° 269° (W) 22:54:32 145.935
BEESAT 2 22 Dec 22:54:04 22:57:03 19° 250° (WSW) 23:00:00 435.950
O/OREOS (USA 219) 22 Dec 22:55:13 22:56:27 11° 98° (E) 22:57:42 437.305
RS-15 22 Dec 22:55:39 23:03:50 24° 259° (WSW) 23:12:18 29.354- 29.394
POLYITAN 1 22 Dec 22:56:30 23:00:45 61° 101° (E) 23:05:01 437.675
NANOSAT C BR1 22 Dec 22:56:33 23:00:47 59° 101° (E) 23:05:00 145.865
UNISAT 6 22 Dec 23:01:00 23:05:44 78° 284° (WNW) 23:10:27 437.425
PCSat 22 Dec 23:01:03 23:06:24 62° 246° (WSW) 23:11:43 145.827
HUMSAT D 22 Dec 23:06:04 23:08:28 15° 268° (W) 23:10:55 437.325/437.525
QB50P1 22 Dec 23:11:22 23:15:40 89° 101° (E) 23:19:56 145.935-145.965
CUBEBUG 1 22 Dec 23:13:42 23:17:44 36° 262° (W) 23:21:46 437.445
AISAT 22 Dec 23:19:11 23:21:03 12° 268° (W) 23:22:55 437.250
ANTELSAT 22 Dec 23:33:32 23:37:50 36° 289° (WNW) 23:42:07 437.575/2403.000
POPSAT HIP 1 22 Dec 23:40:38 23:44:39 41° 288° (WNW) 23:48:41 437.405
BUGSAT 1 22 Dec 23:54:36 23:58:18 34° 288° (WNW) 00:02:01 437.445
TISAT 1 23 Dec 00:00:21 00:04:21 44° 261° (W) 00:08:23 437.305
DUCHIFAT 1 23 Dec 00:07:58 00:11:14 22° 292° (WNW) 00:14:29 145.980
TIGRISAT 23 Dec 00:08:29 00:11:31 17° 295° (WNW) 00:14:33 435.000
YUBILEINY 23 Dec 00:10:37 00:19:20 71° 279° (W) 00:28:03 435.215
SPROUT 23 Dec 00:11:55 00:15:51 36° 262° (W) 00:19:48 437.525
AUBIESAT-1 23 Dec 00:12:52 00:16:27 21° 61° (ENE) 00:20:03 437.475
SWISSCUBE 23 Dec 00:17:25 00:21:55 42° 71° (ENE) 00:26:25 437.505
ITUPSAT 1 23 Dec 00:18:59 00:23:26 39° 71° (ENE) 00:27:54 437.325
QB50P2 23 Dec 00:24:06 00:26:31 15° 295° (WNW) 00:28:56 145.880/145.840
O/OREOS (USA 219) 23 Dec 00:30:51 00:35:15 61° 293° (WNW) 00:39:41 437.305
NANOSAT C BR1 23 Dec 00:34:33 00:36:08 12° 296° (WNW) 00:37:43 145.865
POLYITAN 1 23 Dec 00:34:34 00:36:10 12° 296° (WNW) 00:37:46 437.675
M-CUBED/EXP-1 PRIME 23 Dec 00:39:13 00:43:45 40° 66° (ENE) 00:48:20 437.505
Oscar 19 23 Dec 00:40:16 00:43:58 19° 93° (E) 00:47:39 437.125/150
BEESAT 23 Dec 00:41:36 00:46:21 69° 74° (ENE) 00:51:07 436.000
STARS 23 Dec 00:58:35 01:00:37 13° 64° (ENE) 01:02:40 437.465
ITAMSAT 1 23 Dec 01:04:01 01:04:54 10° 89° (E) 01:05:47 435.822/435.867
KKS-1 23 Dec 01:06:02 01:09:34 24° 68° (ENE) 01:13:06 437.445
AUBIESAT-1 23 Dec 01:46:23 01:51:01 47° 256° (WSW) 01:55:44 437.475
VERMONT LUNAR 23 Dec 01:50:44 01:54:03 38° 155° (SSE) 01:57:21 437.305
SWISSCUBE 23 Dec 01:56:31 01:59:55 19° 266° (W) 02:03:20 437.505
ITUPSAT 1 23 Dec 01:57:52 02:01:26 21° 266° (W) 02:05:00 437.325
YUBILEINY 23 Dec 02:14:14 02:17:50 13° 300° (WNW) 02:21:27 435.215
M-CUBED/EXP-1 PRIME 23 Dec 02:15:00 02:18:48 23° 261° (W) 02:22:40 437.505
PHONESAT 2.4 23 Dec 02:16:55 02:20:19 39° 155° (SSE) 02:23:44 2401.200-2431.200
Oscar 19 23 Dec 02:18:32 02:23:31 47° 289° (WNW) 02:28:28 437.125/150
BEESAT 23 Dec 02:23:09 02:24:38 11° 270° (W) 02:26:07 436.000
HORYU 2 23 Dec 02:30:47 02:33:45 17° 93° (E) 02:36:42 437.375
STARS 23 Dec 02:32:19 02:36:36 56° 259° (W) 02:40:56 437.465
ITAMSAT 1 23 Dec 02:39:46 02:44:58 82° 285° (WNW) 02:50:08 435.822/435.867
KKS-1 23 Dec 02:42:12 02:46:03 29° 263° (W) 02:49:56 437.445
Gurwin Techsat 1B 23 Dec 02:49:50 02:55:10 78° 103° (ESE) 03:00:27 435.225
AIST 1 23 Dec 03:05:02 03:09:12 50° 80° (E) 03:13:20
VERMONT LUNAR 23 Dec 03:28:43 03:32:15 75° 351° (N) 03:35:46 437.305
AO-7 23 Dec 03:44:20 03:52:06 40° 99° (E) 03:59:47 29.400- 29.500
PHONESAT 2.4 23 Dec 03:55:17 03:58:54 76° 351° (N) 04:02:32 2401.200-2431.200
HORYU 2 23 Dec 04:06:19 04:10:35 42° 288° (WNW) 04:14:48 437.375
MOZHAYETS 4 23 Dec 04:09:17 04:13:54 69° 75° (ENE) 04:18:32
GONETS M04 23 Dec 04:11:32 04:18:36 28° 83° (E) 04:25:39
JAS-2 23 Dec 04:27:35 04:32:09 27° 94° (E) 04:36:30 435.910
Gurwin Techsat 1B 23 Dec 04:31:55 04:34:26 14° 299° (WNW) 04:36:56 435.225
SO-50 23 Dec 04:38:13 04:42:41 34° 51° (NE) 04:47:08 436.795
AIST 1 23 Dec 04:44:55 04:46:20 11° 276° (W) 04:47:44
VERMONT LUNAR 23 Dec 05:07:10 05:10:41 72° 8° (N) 05:14:13 437.305
STRAND 1 23 Dec 05:17:56 05:22:05 26° 67° (ENE) 05:26:14 437.568
PRISM 23 Dec 05:31:00 05:35:13 80° 76° (ENE) 05:39:27 437.425
PHONESAT 2.4 23 Dec 05:34:06 05:37:44 73° 8° (N) 05:41:21 2401.200-2431.200
AO-7 23 Dec 05:37:04 05:44:51 45° 297° (WNW) 05:52:36 29.400- 29.500
CUBESAT XI-V 23 Dec 05:40:11 05:44:38 45° 73° (ENE) 05:49:03 437.345
MOZHAYETS 4 23 Dec 05:50:32 05:51:34 11° 271° (W) 05:52:35
Cubesat XI-IV 23 Dec 05:56:00 06:00:55 37° 98° (E) 06:05:48 437.490
GONETS M04 23 Dec 06:06:04 06:14:46 60° 281° (W) 06:23:30
JAS-2 23 Dec 06:12:27 06:17:20 33° 293° (WNW) 06:21:56 435.910
SO-50 23 Dec 06:18:54 06:23:08 30° 247° (WSW) 06:27:22 436.795
CUTE-I 23 Dec 06:28:11 06:33:31 75° 103° (ESE) 06:38:49 437.470
VERMONT LUNAR 23 Dec 06:45:34 06:48:55 42° 204° (SSW) 06:52:16 437.305
STRAND 1 23 Dec 06:56:25 07:01:05 36° 262° (W) 07:05:46 437.568
PHONESAT 2.4 23 Dec 07:12:53 07:16:20 42° 204° (SSW) 07:19:47 2401.200-2431.200
CUBESAT XI-V 23 Dec 07:19:16 07:22:16 17° 268° (W) 07:25:15 437.345
Cubesat XI-IV 23 Dec 07:36:26 07:40:48 27° 294° (WNW) 07:45:10 437.490
MaSat-1 23 Dec 07:56:38 07:58:53 62° 115° (ESE) 08:01:04 437.345
HO-68 23 Dec 08:03:15 08:08:58 25° 94° (E) 08:14:39 435.675
CUTE-I 23 Dec 08:10:14 08:12:55 14° 299° (WNW) 08:15:35 437.470
GONETS M04 23 Dec 08:12:28 08:13:40 10° 303° (WNW) 08:14:53
CANX-2 23 Dec 08:17:34 08:21:05 24° 95° (E) 08:24:34 2200.000
COMPASS 1 23 Dec 08:31:17 08:34:37 22° 94° (E) 08:37:55 437.405
DANDE 23 Dec 08:35:11 08:37:55 20° 83° (E) 08:41:15 436.750
SEEDS 23 Dec 08:40:23 08:44:17 34° 97° (E) 08:48:09 437.485
BRITE-PL 23 Dec 08:44:40 08:49:26 55° 100° (E) 08:54:33 437.365/2234.400
CUTE 1.7 + AOD 2 23 Dec 08:47:28 08:51:39 48° 99° (E) 08:55:48 437.475
ANTELSAT 23 Dec 08:56:21 08:59:10 17° 65° (ENE) 09:02:03 437.575/2403.000
GOMX 1 23 Dec 08:56:45 09:01:33 52° 100° (E) 09:06:37 467.674
POPSAT HIP 1 23 Dec 09:00:08 09:01:02 11° 63° (ENE) 09:01:57 437.405
RS-15 23 Dec 09:01:51 09:03:47 11° 95° (E) 09:05:43 29.354- 29.394
O/OREOS (USA 219) 23 Dec 09:03:31 09:06:51 20° 58° (ENE) 09:10:10 437.305
FUNcube-1 23 Dec 09:04:30 09:05:13 10° 90° (E) 09:05:55 145.935
DOVE 4 23 Dec 09:08:50 09:13:37 52° 100° (E) 09:18:37 437.250
UWE-3 23 Dec 09:10:44 09:13:35 16° 92° (E) 09:16:27 435.000/436.395/437.385
CUSAT 1 23 Dec 09:10:49 09:14:32 69° 96° (E) 09:19:36 437.405
BUGSAT 1 23 Dec 09:11:24 09:12:25 11° 64° (ENE) 09:13:25 437.445
CINEMA 3 23 Dec 09:13:14 09:17:38 34° 97° (E) 09:22:07 145.822/145.860
DX 1 23 Dec 09:16:59 09:20:24 22° 95° (E) 09:23:49 434.975-435.025
DUCHIFAT 1 23 Dec 09:24:12 09:27:16 20° 67° (ENE) 09:30:21 145.980
TIGRISAT 23 Dec 09:28:37 09:32:35 36° 71° (ENE) 09:36:41 435.000
AAUSAT CUBESAT 2 23 Dec 09:28:39 09:32:55 88° 283° (WNW) 09:37:08 437.432
Oscar 11 23 Dec 09:33:46 09:38:01 49° 99° (E) 09:42:14 145.826/435.025
AISAT 23 Dec 09:34:31 09:36:02 12° 91° (E) 09:37:32 437.250
QB50P2 23 Dec 09:39:14 09:42:55 30° 70° (ENE) 09:46:36 145.880/145.840
UKube-1 23 Dec 09:44:16 09:48:25 44° 100° (E) 09:52:33 .
NANOSAT C BR1 23 Dec 09:48:28 09:52:21 37° 72° (ENE) 09:56:14 145.865
POLYITAN 1 23 Dec 09:48:52 09:52:46 38° 72° (ENE) 09:56:42 437.675
HO-68 23 Dec 09:50:03 09:57:01 57° 291° (WNW) 10:03:56 435.675
CANX-2 23 Dec 09:53:18 09:56:58 27° 290° (WNW) 10:00:35 2200.000
UNISAT 6 23 Dec 09:58:54 10:03:16 81° 76° (ENE) 10:07:47 437.425
QB50P1 23 Dec 10:03:08 10:07:15 56° 74° (ENE) 10:11:23 145.935-145.965
DELFI C3 23 Dec 10:04:48 10:08:56 84° 283° (WNW) 10:13:01 145.870
50 SAT 23 Dec 10:05:07 10:08:22 22° 95° (E) 10:11:35 437.505
COMPASS 1 23 Dec 10:06:39 10:10:19 28° 290° (WNW) 10:13:57 437.405
ZACube-1 23 Dec 10:11:36 10:16:08 62° 101° (E) 10:20:41 437.345
CUBEBUG 2 23 Dec 10:13:42 10:18:24 90° 99° (E) 10:23:11 437.445
SEEDS 23 Dec 10:16:46 10:19:52 20° 293° (WNW) 10:22:56 437.485
DANDE 23 Dec 10:17:54 10:21:06 25° 292° (WNW) 10:25:09 436.750
YUBILEINY 23 Dec 10:22:22 10:30:53 55° 78° (ENE) 10:39:21 435.215
VELOX 1 23 Dec 10:23:48 10:28:00 41° 99° (E) 10:32:11 145.980
BRITE-PL 23 Dec 10:24:33 10:27:35 17° 294° (WNW) 10:30:44 437.365/2234.400
CUTE 1.7 + AOD 2 23 Dec 10:24:48 10:27:09 15° 295° (WNW) 10:29:30 437.475
ANTELSAT 23 Dec 10:31:25 10:35:35 43° 262° (W) 10:39:53 437.575/2403.000
POPSAT HIP 1 23 Dec 10:32:12 10:36:22 65° 259° (W) 10:40:33 437.405
GOMX 1 23 Dec 10:36:06 10:39:18 18° 294° (WNW) 10:42:37 467.674
FUNcube-1 23 Dec 10:37:25 10:41:58 70° 284° (WNW) 10:46:32 145.935
ESTCUBE 1 23 Dec 10:37:33 10:41:09 23° 95° (E) 10:44:44 437.505/2401.250
O/OREOS (USA 219) 23 Dec 10:42:11 10:46:23 39° 255° (WSW) 10:50:35 437.305
BUGSAT 1 23 Dec 10:43:22 10:47:24 59° 259° (W) 10:51:25 437.445
UWE-3 23 Dec 10:45:53 10:50:19 48° 287° (WNW) 10:54:49 435.000/436.395/437.385
DOVE 4 23 Dec 10:47:46 10:51:00 18° 294° (WNW) 10:54:20 437.250
HUMSAT D 23 Dec 10:49:44 10:54:06 86° 283° (WNW) 10:58:27 437.325/437.525
CINEMA 3 23 Dec 10:50:44 10:54:39 25° 291° (WNW) 10:58:39 145.822/145.860
DX 1 23 Dec 10:52:51 10:56:38 30° 291° (WNW) 11:00:24 434.975-435.025
DUCHIFAT 1 23 Dec 10:59:10 11:02:55 31° 263° (W) 11:06:41 145.980
RS-15 23 Dec 11:03:02 11:13:46 65° 114° (ESE) 11:24:30 29.354- 29.394
CUBEBUG 1 23 Dec 11:03:46 11:07:54 42° 99° (E) 11:12:01 437.445
TIGRISAT 23 Dec 11:06:20 11:09:27 19° 267° (W) 11:12:37 435.000
AISAT 23 Dec 11:08:37 11:13:00 60° 286° (WNW) 11:17:22 437.250
Oscar 11 23 Dec 11:11:22 11:13:45 15° 295° (WNW) 11:16:08 145.826/435.025
QB50P2 23 Dec 11:15:40 11:18:50 21° 265° (W) 11:22:02 145.880/145.840
UKube-1 23 Dec 11:21:34 11:24:12 16° 295° (WNW) 11:26:50 .
ISS 23 Dec 11:22:07 11:24:13 16° 130° (SE) 11:26:18 145.825
NANOSAT C BR1 23 Dec 11:25:41 11:28:21 16° 267° (W) 11:31:02 145.865
POLYITAN 1 23 Dec 11:26:15 11:28:52 16° 267° (W) 11:31:29 437.675
50 SAT 23 Dec 11:39:59 11:43:32 28° 290° (WNW) 11:47:05 437.505
QB50P1 23 Dec 11:42:23 11:43:28 11° 269° (W) 11:44:34 145.935-145.965
HO-68 23 Dec 11:42:41 11:43:12 10° 310° (NW) 11:43:43 435.675
TISAT 1 23 Dec 11:46:43 11:50:28 30° 97° (E) 11:54:12 437.305
ZACube-1 23 Dec 11:49:49 11:51:58 13° 296° (WNW) 11:54:07 437.345
Oscar 19 23 Dec 11:55:54 12:00:04 26° 66° (ENE) 12:04:16 437.125/150
SPROUT 23 Dec 11:59:44 12:03:49 40° 99° (E) 12:07:52 437.525
PCSat 23 Dec 11:59:47 12:03:40 20° 106° (ESE) 12:07:34 145.827
VELOX 1 23 Dec 12:01:19 12:04:15 18° 294° (WNW) 12:07:11 145.980
BEESAT 3 23 Dec 12:04:23 12:08:13 41° 115° (ESE) 12:12:08 437.485
ESTCUBE 1 23 Dec 12:14:06 12:18:00 30° 290° (WNW) 12:21:54 437.505/2401.250
ITAMSAT 1 23 Dec 12:19:41 12:22:48 16° 62° (ENE) 12:25:54 435.822/435.867
YUBILEINY 23 Dec 12:19:58 12:27:09 30° 276° (W) 12:34:20 435.215
SWISSCUBE 23 Dec 12:21:31 12:23:04 11° 90° (E) 12:24:37 437.505
ITUPSAT 1 23 Dec 12:23:43 12:24:47 11° 90° (E) 12:25:50 437.325
AIST 2 23 Dec 12:28:58 12:32:41 31° 113° (ESE) 12:36:28 435.215
Gurwin Techsat 1B 23 Dec 12:33:13 12:35:44 14° 61° (ENE) 12:38:15 435.225
JUGNU 23 Dec 12:37:29 12:39:21 11° 182° (S) 12:41:14 437.505
CUBEBUG 1 23 Dec 12:41:13 12:43:55 16° 294° (WNW) 12:46:37 437.445
BEESAT 23 Dec 12:44:16 12:47:41 19° 94° (E) 12:51:05 436.000
BEESAT 2 23 Dec 12:46:50 12:50:56 73° 302° (WNW) 12:55:07 435.950
ISS 23 Dec 12:57:16 13:00:30 50° 325° (NW) 13:03:44 145.825
AO-7 23 Dec 12:58:12 12:58:55 10° 43° (NE) 12:59:37 29.400- 29.500
RS-15 23 Dec 13:16:47 13:26:44 39° 318° (NW) 13:36:51 29.354- 29.394
TISAT 1 23 Dec 13:22:54 13:26:06 21° 292° (WNW) 13:29:18 437.305
HORYU 2 23 Dec 13:29:03 13:31:31 15° 64° (ENE) 13:34:00 437.375
AUBIESAT-1 23 Dec 13:32:14 13:34:31 15° 95° (E) 13:36:41 437.475
Oscar 19 23 Dec 13:34:29 13:39:12 37° 262° (W) 13:43:58 437.125/150
SPROUT 23 Dec 13:36:49 13:39:34 17° 294° (WNW) 13:42:19 437.525
PCSat 23 Dec 13:41:23 13:46:39 51° 302° (WNW) 13:51:57 145.827
BEESAT 3 23 Dec 13:43:35 13:46:35 19° 313° (NW) 13:49:37 437.485
SRMSAT 23 Dec 13:46:51 13:48:43 11° 180° (S) 13:50:35 437.500
